KE7JVX-3 Weather Reports


Display with metric or nautical units.
time (UTC)temp
F
wind
direction
speed
MPH
gust
MPH
rain 1hr
in
rain 24hr
in
rain mn
in
humidity
%
barometer
mb
20180624105445 55 254 20.0 29.0 0.00 0.00 0.00 36 1012.9
20180624105215 55 254 20.0 29.0 0.00 0.00 0.00 36 1012.9
20180624104052 55 248 21.0 30.0 0.00 0.00 0.00 36 1012.8
20180624103752 55 248 21.0 30.0 0.00 0.00 0.00 36 1012.8
20180624103716 55 248 21.0 30.0 0.00 0.00 0.00 36 1012.8
20180624103034 55 250 21.0 26.0 0.00 0.00 0.00 37 1012.8
20180624102716 55 250 21.0 26.0 0.00 0.00 0.00 37 1012.8
20180624102118 55 248 19.0 28.0 0.00 0.00 0.00 35 1012.8
20180624101716 55 248 19.0 28.0 0.00 0.00 0.00 35 1012.8
20180624101206 55 244 16.0 25.0 0.00 0.00 0.00 37 1012.8
20180624100753 55 244 16.0 25.0 0.00 0.00 0.00 37 1012.8
20180624100716 55 244 16.0 25.0 0.00 0.00 0.00 37 1012.8
20180624100109 55 247 17.0 30.0 0.00 0.00 0.00 39 1012.8
20180624095716 55 247 17.0 30.0 0.00 0.00 0.00 39 1012.8
20180624095114 55 249 18.0 27.0 0.00 0.00 0.00 40 1012.8
20180624094716 55 249 18.0 27.0 0.00 0.00 0.00 40 1012.8
20180624094136 55 245 17.0 29.0 0.00 0.00 0.00 41 1012.8
20180624093716 55 245 17.0 29.0 0.00 0.00 0.00 41 1012.8
20180624093053 56 249 21.0 30.0 0.00 0.00 0.00 42 1012.8
20180624092716 56 249 21.0 30.0 0.00 0.00 0.00 42 1012.8
20180624091125 55 243 17.0 27.0 0.00 0.00 0.00 44 1012.7
20180624090716 55 243 17.0 27.0 0.00 0.00 0.00 44 1012.7
20180624090133 56 246 18.0 31.0 0.00 0.00 0.00 43 1012.6
20180624085716 56 246 18.0 31.0 0.00 0.00 0.00 43 1012.6
20180624085032 56 246 14.0 27.0 0.00 0.00 0.00 42 1012.7
20180624084716 56 246 14.0 27.0 0.00 0.00 0.00 42 1012.7
20180624084308 57 245 17.0 23.0 0.00 0.00 0.00 39 1012.7
20180624084047 57 251 18.0 28.0 0.00 0.00 0.00 40 1012.7
20180624083716 57 251 18.0 28.0 0.00 0.00 0.00 40 1012.7
20180624083058 57 245 17.0 23.0 0.00 0.00 0.00 39 1012.7
20180624082716 57 245 17.0 23.0 0.00 0.00 0.00 39 1012.7
20180624082217 57 249 11.0 22.0 0.00 0.00 0.00 37 1013.0
20180624082057 57 236 16.0 24.0 0.00 0.00 0.00 38 1012.8
20180624081716 57 236 16.0 24.0 0.00 0.00 0.00 38 1012.8
20180624081221 57 249 11.0 22.0 0.00 0.00 0.00 37 1013.0
20180624080716 57 249 11.0 22.0 0.00 0.00 0.00 37 1013.0
20180624075959 58 256 17.0 31.0 0.00 0.00 0.00 36 1012.9
20180624075716 58 256 17.0 31.0 0.00 0.00 0.00 36 1012.9
20180624075108 58 259 8.0 28.0 0.00 0.00 0.00 35 1013.0
20180624074909 58 259 8.0 28.0 0.00 0.00 0.00 35 1013.0
20180624074716 58 259 8.0 28.0 0.00 0.00 0.00 35 1013.0
20180624074128 58 254 14.0 26.0 0.00 0.00 0.00 34 1013.1
20180624073717 58 254 14.0 26.0 0.00 0.00 0.00 34 1013.1
20180624073607 59 287 9.0 23.0 0.00 0.00 0.00 30 1013.3
20180624073037 59 252 15.0 33.0 0.00 0.00 0.00 33 1013.2
20180624072717 59 252 15.0 33.0 0.00 0.00 0.00 33 1013.2
20180624072201 59 251 13.0 26.0 0.00 0.00 0.00 33 1013.3
20180624071716 59 251 13.0 26.0 0.00 0.00 0.00 33 1013.3
20180624071208 59 250 6.0 26.0 0.00 0.00 0.00 32 1013.3
20180624070716 59 250 6.0 26.0 0.00 0.00 0.00 32 1013.3
20180624070333 59 261 9.0 20.0 0.00 0.00 0.00 31 1013.4
20180624065716 59 261 9.0 20.0 0.00 0.00 0.00 31 1013.4
20180624065208 59 287 9.0 23.0 0.00 0.00 0.00 30 1013.3
20180624064716 59 287 9.0 23.0 0.00 0.00 0.00 30 1013.3
20180624064307 59 269 12.0 23.0 0.00 0.00 0.00 28 1013.3
20180624063716 59 269 12.0 23.0 0.00 0.00 0.00 28 1013.3
20180624063022 60 265 8.0 22.0 0.00 0.00 0.00 26 1013.4
20180624062716 60 265 8.0 22.0 0.00 0.00 0.00 26 1013.4
20180624062255 60 278 10.0 18.0 0.00 0.00 0.00 25 1013.4
20180624062025 60 278 10.0 18.0 0.00 0.00 0.00 25 1013.4
20180624061716 60 278 10.0 18.0 0.00 0.00 0.00 25 1013.4
20180624061347 61 264 8.0 15.0 0.00 0.00 0.00 22 1013.4
20180624061159 61 264 8.0 15.0 0.00 0.00 0.00 22 1013.4
20180624060717 61 264 8.0 15.0 0.00 0.00 0.00 22 1013.4
20180624060422 62 297 7.0 16.0 0.00 0.00 0.00 19 1013.5
20180624060113 62 297 7.0 16.0 0.00 0.00 0.00 19 1013.5
20180624055719 62 297 7.0 16.0 0.00 0.00 0.00 19 1013.5
20180624055247 62 291 9.0 15.0 0.00 0.00 0.00 19 1013.5
20180624055053 62 291 9.0 15.0 0.00 0.00 0.00 19 1013.5
20180624054716 62 291 9.0 15.0 0.00 0.00 0.00 19 1013.5
20180624054121 62 276 8.0 13.0 0.00 0.00 0.00 17 1013.6
20180624053717 62 276 8.0 13.0 0.00 0.00 0.00 17 1013.6
20180624053407 63 273 11.0 19.0 0.00 0.00 0.00 16 1013.7
20180624053238 63 273 11.0 19.0 0.00 0.00 0.00 16 1013.7
20180624052716 63 273 11.0 19.0 0.00 0.00 0.00 16 1013.7
20180624052157 63 271 10.0 16.0 0.00 0.00 0.00 15 1013.6
20180624051716 63 271 10.0 16.0 0.00 0.00 0.00 15 1013.6
20180624051128 63 256 11.0 23.0 0.00 0.00 0.00 15 1013.6
20180624050718 63 256 11.0 23.0 0.00 0.00 0.00 15 1013.6
20180624050142 63 258 10.0 18.0 0.00 0.00 0.00 15 1013.5
20180624050103 63 258 10.0 18.0 0.00 0.00 0.00 15 1013.5
20180624045718 63 258 10.0 18.0 0.00 0.00 0.00 15 1013.5
20180624045118 64 243 14.0 23.0 0.00 0.00 0.00 15 1013.5
20180624044716 64 243 14.0 23.0 0.00 0.00 0.00 15 1013.5
20180624044107 64 267 9.0 19.0 0.00 0.00 0.00 15 1013.5
20180624043719 64 267 9.0 19.0 0.00 0.00 0.00 15 1013.5
20180624043126 64 267 11.0 18.0 0.00 0.00 0.00 15 1013.6
20180624042716 64 267 11.0 18.0 0.00 0.00 0.00 15 1013.6
20180624041950 64 271 12.0 22.0 0.00 0.00 0.00 15 1013.6
20180624041716 64 271 12.0 22.0 0.00 0.00 0.00 15 1013.6
20180624041121 63 264 10.0 18.0 0.00 0.00 0.00 15 1013.6
20180624040716 63 264 10.0 18.0 0.00 0.00 0.00 15 1013.6
20180624040105 63 254 10.0 18.0 0.00 0.00 0.00 15 1013.3
20180624035716 63 254 10.0 18.0 0.00 0.00 0.00 15 1013.3
20180624035128 64 263 10.0 21.0 0.00 0.00 0.00 15 1013.5
20180624034716 64 263 10.0 21.0 0.00 0.00 0.00 15 1013.5
20180624034146 63 263 11.0 18.0 0.00 0.00 0.00 15 1013.4
20180624033716 63 263 11.0 18.0 0.00 0.00 0.00 15 1013.4
20180624033210 63 266 11.0 17.0 0.00 0.00 0.00 15 1013.5
20180624032716 63 266 11.0 17.0 0.00 0.00 0.00 15 1013.5
20180624032034 64 281 7.0 16.0 0.00 0.00 0.00 15 1013.4
20180624031716 64 281 7.0 16.0 0.00 0.00 0.00 15 1013.4
20180624031217 64 257 13.0 23.0 0.00 0.00 0.00 14 1013.4
20180624031131 64 257 13.0 23.0 0.00 0.00 0.00 14 1013.4
20180624030718 64 257 13.0 23.0 0.00 0.00 0.00 14 1013.4
20180624030124 64 254 12.0 31.0 0.00 0.00 0.00 14 1013.2
20180624025716 64 254 12.0 31.0 0.00 0.00 0.00 14 1013.2
20180624025056 64 260 14.0 31.0 0.00 0.00 0.00 14 1013.3
20180624024716 64 260 14.0 31.0 0.00 0.00 0.00 14 1013.3
20180624024202 65 257 16.0 31.0 0.00 0.00 0.00 13 1013.3
20180624023716 65 257 16.0 31.0 0.00 0.00 0.00 13 1013.3
20180624022955 65 258 17.0 31.0 0.00 0.00 0.00 12 1013.2
20180624022840 65 258 17.0 31.0 0.00 0.00 0.00 12 1013.2
20180624022718 65 258 17.0 31.0 0.00 0.00 0.00 12 1013.2
20180624022102 65 262 14.0 26.0 0.00 0.00 0.00 11 1013.0
20180624021716 65 262 14.0 26.0 0.00 0.00 0.00 11 1013.0
20180624021040 66 269 13.0 25.0 0.00 0.00 0.00 10 1013.1
20180624020716 66 269 13.0 25.0 0.00 0.00 0.00 10 1013.1
20180624020132 66 261 14.0 21.0 0.00 0.00 0.00 10 1013.2
20180624015716 66 261 14.0 21.0 0.00 0.00 0.00 10 1013.2
20180624015042 66 245 10.0 29.0 0.00 0.00 0.00 10 1013.0
20180624014716 66 245 10.0 29.0 0.00 0.00 0.00 10 1013.0
20180624014127 67 241 6.0 24.0 0.00 0.00 0.00 10 1013.0
20180624013716 67 241 6.0 24.0 0.00 0.00 0.00 10 1013.0
20180624013104 67 231 11.0 29.0 0.00 0.00 0.00 11 1012.9
20180624012716 67 231 11.0 29.0 0.00 0.00 0.00 11 1012.9
20180624011955 67 265 9.0 17.0 0.00 0.00 0.00 11 1013.0
20180624011939 68 237 8.0 22.0 0.00 0.00 0.00 10 1013.0
20180624011716 67 265 9.0 17.0 0.00 0.00 0.00 11 1013.0
20180624011117 68 237 8.0 22.0 0.00 0.00 0.00 10 1013.0
20180624010716 68 237 8.0 22.0 0.00 0.00 0.00 10 1013.0
20180624010037 67 266 11.0 30.0 0.00 0.00 0.00 9 1012.8
20180624005716 67 266 11.0 30.0 0.00 0.00 0.00 9 1012.8
20180624005052 68 256 9.0 28.0 0.00 0.00 0.00 9 1012.9
20180624004716 68 256 9.0 28.0 0.00 0.00 0.00 9 1012.9
20180624004238 68 236 13.0 25.0 0.00 0.00 0.00 8 1012.9
20180624003747 68 236 13.0 25.0 0.00 0.00 0.00 8 1012.9
20180624003716 68 236 13.0 25.0 0.00 0.00 0.00 8 1012.9
20180624003224 69 266 15.0 26.0 0.00 0.00 0.00 8 1013.0
20180624002716 69 266 15.0 26.0 0.00 0.00 0.00 8 1013.0
20180624002039 69 264 12.0 24.0 0.00 0.00 0.00 8 1012.9
20180624001716 69 264 12.0 24.0 0.00 0.00 0.00 8 1012.9
20180624001122 68 244 10.0 29.0 0.00 0.00 0.00 6 1013.2
20180624000716 68 244 10.0 29.0 0.00 0.00 0.00 6 1013.2
20180623235619 69 233 8.0 24.0 0.00 0.00 0.00 8 1013.1
20180623235217 69 233 8.0 24.0 0.00 0.00 0.00 8 1013.1
20180623233715 68 236 13.0 27.0 0.00 0.00 0.00 9 1013.2
20180623233112 68 244 10.0 32.0 0.00 0.00 0.00 8 1013.2
20180623232721 68 244 10.0 32.0 0.00 0.00 0.00 8 1013.2
20180623232109 68 233 12.0 29.0 0.00 0.00 0.00 7 1013.3
20180623231716 68 233 12.0 29.0 0.00 0.00 0.00 7 1013.3
20180623231150 69 226 10.0 28.0 0.00 0.00 0.00 6 1013.5
20180623230722 69 226 10.0 28.0 0.00 0.00 0.00 6 1013.5
20180623225958 68 252 9.0 26.0 0.00 0.00 0.00 8 1013.5
20180623225715 68 252 9.0 26.0 0.00 0.00 0.00 8 1013.5
20180623225051 68 227 9.0 32.0 0.00 0.00 0.00 9 1013.5
20180623224717 68 227 9.0 32.0 0.00 0.00 0.00 9 1013.5
20180623224053 68 255 16.0 32.0 0.00 0.00 0.00 9 1013.7
20180623223716 68 255 16.0 32.0 0.00 0.00 0.00 9 1013.7
20180623223026 68 232 11.0 34.0 0.00 0.00 0.00 9 1013.7
20180623222715 68 232 11.0 34.0 0.00 0.00 0.00 9 1013.7
20180623222143 68 241 10.0 28.0 0.00 0.00 0.00 10 1013.7
20180623221715 68 241 10.0 28.0 0.00 0.00 0.00 10 1013.7
20180623221123 69 248 7.0 25.0 0.00 0.00 0.00 12 1014.0
20180623220717 69 248 7.0 25.0 0.00 0.00 0.00 12 1014.0
20180623220131 68 250 14.0 30.0 0.00 0.00 0.00 12 1014.0
20180623215715 68 250 14.0 30.0 0.00 0.00 0.00 12 1014.0
20180623215055 68 221 12.0 23.0 0.00 0.00 0.00 12 1013.9
20180623214716 68 221 12.0 23.0 0.00 0.00 0.00 12 1013.9
20180623214053 68 233 11.0 24.0 0.00 0.00 0.00 14 1014.1
20180623213716 68 233 11.0 24.0 0.00 0.00 0.00 14 1014.1
20180623213033 68 242 12.0 25.0 0.00 0.00 0.00 13 1014.2
20180623212715 68 242 12.0 25.0 0.00 0.00 0.00 13 1014.2
20180623212049 69 227 12.0 21.0 0.00 0.00 0.00 13 1014.2
20180623211715 69 227 12.0 21.0 0.00 0.00 0.00 13 1014.2
20180623211050 67 260 11.0 23.0 0.00 0.00 0.00 12 1014.4
20180623210715 67 260 11.0 23.0 0.00 0.00 0.00 12 1014.4
20180623205540 68 256 12.0 29.0 0.00 0.00 0.00 9 1014.2
20180623205316 68 256 12.0 29.0 0.00 0.00 0.00 9 1014.2
20180623204543 66 239 12.0 30.0 0.00 0.00 0.00 13 1014.4
20180623204315 66 239 12.0 30.0 0.00 0.00 0.00 13 1014.4
20180623203758 67 241 12.0 31.0 0.00 0.00 0.00 12 1014.4
20180623203314 67 241 12.0 31.0 0.00 0.00 0.00 12 1014.4
20180623202712 67 228 11.0 27.0 0.00 0.00 0.00 12 1014.4
20180623202314 67 228 11.0 27.0 0.00 0.00 0.00 12 1014.4
20180623201614 66 240 13.0 29.0 0.00 0.00 0.00 13 1014.5
20180623201314 66 240 13.0 29.0 0.00 0.00 0.00 13 1014.5
20180623200525 67 236 13.0 30.0 0.00 0.00 0.00 12 1014.5
20180623200315 67 236 13.0 30.0 0.00 0.00 0.00 12 1014.5
20180623195601 66 238 15.0 29.0 0.00 0.00 0.00 13 1014.6
20180623195317 66 238 15.0 29.0 0.00 0.00 0.00 13 1014.6
20180623194628 67 244 11.0 22.0 0.00 0.00 0.00 13 1014.6
20180623194316 67 244 11.0 22.0 0.00 0.00 0.00 13 1014.6
20180623193618 67 238 11.0 21.0 0.00 0.00 0.00 13 1014.5
20180623193315 67 238 11.0 21.0 0.00 0.00 0.00 13 1014.5
20180623192316 66 234 9.0 21.0 0.00 0.00 0.00 13 1014.6
20180623191552 65 229 8.0 26.0 0.00 0.00 0.00 12 1014.7
20180623191315 65 229 8.0 26.0 0.00 0.00 0.00 12 1014.7
20180623190602 65 231 9.0 21.0 0.00 0.00 0.00 12 1014.7
20180623190315 65 231 9.0 21.0 0.00 0.00 0.00 12 1014.7
20180623185601 65 264 11.0 25.0 0.00 0.00 0.00 11 1014.7
20180623185316 65 264 11.0 25.0 0.00 0.00 0.00 11 1014.7
20180623184631 64 248 13.0 20.0 0.00 0.00 0.00 12 1014.8
20180623184316 64 248 13.0 20.0 0.00 0.00 0.00 12 1014.8
20180623183738 65 248 10.0 19.0 0.00 0.00 0.00 12 1014.9
20180623183320 65 248 10.0 19.0 0.00 0.00 0.00 12 1014.9
20180623182820 65 246 10.0 20.0 0.00 0.00 0.00 12 1014.8
20180623182315 65 246 10.0 20.0 0.00 0.00 0.00 12 1014.8
20180623181810 64 253 12.0 18.0 0.00 0.00 0.00 11 1014.9
20180623181315 64 253 12.0 18.0 0.00 0.00 0.00 11 1014.9
20180623181012 64 248 9.0 19.0 0.00 0.00 0.00 13 1014.8
20180623180315 64 248 9.0 19.0 0.00 0.00 0.00 13 1014.8
20180623175805 64 261 11.0 20.0 0.00 0.00 0.00 13 1014.9
20180623175315 64 261 11.0 20.0 0.00 0.00 0.00 13 1014.9
20180623174314 64 260 8.0 19.0 0.00 0.00 0.00 12 1014.9
20180623173723 64 259 10.0 19.0 0.00 0.00 0.00 12 1014.8
20180623173314 64 259 10.0 19.0 0.00 0.00 0.00 12 1014.8
20180623172847 64 254 9.0 17.0 0.00 0.00 0.00 12 1014.9
20180623172357 64 254 9.0 17.0 0.00 0.00 0.00 12 1014.9
20180623172316 64 254 9.0 17.0 0.00 0.00 0.00 12 1014.9
20180623171657 63 282 10.0 17.0 0.00 0.00 0.00 14 1014.8
20180623171314 63 282 10.0 17.0 0.00 0.00 0.00 14 1014.8
20180623170737 62 261 11.0 17.0 0.00 0.00 0.00 14 1014.8
20180623170654 62 261 11.0 17.0 0.00 0.00 0.00 14 1014.8
20180623170314 62 261 11.0 17.0 0.00 0.00 0.00 14 1014.8
20180623165605 62 276 9.0 16.0 0.00 0.00 0.00 13 1014.8
20180623165316 62 276 9.0 16.0 0.00 0.00 0.00 13 1014.8
20180623164802 62 269 11.0 19.0 0.00 0.00 0.00 15 1014.7
20180623164314 62 269 11.0 19.0 0.00 0.00 0.00 15 1014.7
20180623163636 62 273 12.0 19.0 0.00 0.00 0.00 15 1014.6
20180623163314 62 273 12.0 19.0 0.00 0.00 0.00 15 1014.6
20180623162744 62 275 11.0 18.0 0.00 0.00 0.00 14 1014.6
20180623162316 62 275 11.0 18.0 0.00 0.00 0.00 14 1014.6
20180623161548 62 270 11.0 17.0 0.00 0.00 0.00 16 1014.5
20180623161315 62 270 11.0 17.0 0.00 0.00 0.00 16 1014.5
20180623160543 61 280 9.0 17.0 0.00 0.00 0.00 16 1014.5
20180623160315 61 280 9.0 17.0 0.00 0.00 0.00 16 1014.5
20180623155553 60 281 10.0 17.0 0.00 0.00 0.00 18 1014.3
20180623155316 60 281 10.0 17.0 0.00 0.00 0.00 18 1014.3
20180623154627 61 277 9.0 16.0 0.00 0.00 0.00 18 1014.3
20180623154314 61 277 9.0 16.0 0.00 0.00 0.00 18 1014.3
20180623153624 60 275 11.0 16.0 0.00 0.00 0.00 18 1014.2
20180623153314 60 275 11.0 16.0 0.00 0.00 0.00 18 1014.2
20180623152750 60 283 11.0 17.0 0.00 0.00 0.00 18 1014.3
20180623152317 60 283 11.0 17.0 0.00 0.00 0.00 18 1014.3
20180623151646 60 282 12.0 17.0 0.00 0.00 0.00 19 1014.2
20180623151314 60 282 12.0 17.0 0.00 0.00 0.00 19 1014.2
20180623150847 59 282 13.0 17.0 0.00 0.00 0.00 20 1014.2
20180623150314 59 282 13.0 17.0 0.00 0.00 0.00 20 1014.2
20180623145725 60 285 12.0 17.0 0.00 0.00 0.00 19 1014.1
20180623145317 60 285 12.0 17.0 0.00 0.00 0.00 19 1014.1
20180623144735 60 278 12.0 18.0 0.00 0.00 0.00 17 1014.1
20180623144315 60 278 12.0 18.0 0.00 0.00 0.00 17 1014.1
20180623143703 61 279 11.0 18.0 0.00 0.00 0.00 17 1014.0
20180623143314 61 279 11.0 18.0 0.00 0.00 0.00 17 1014.0
20180623142715 61 281 12.0 18.0 0.00 0.00 0.00 15 1014.0
20180623142317 61 281 12.0 18.0 0.00 0.00 0.00 15 1014.0
20180623141618 61 287 10.0 19.0 0.00 0.00 0.00 15 1013.9
20180623141317 61 287 10.0 19.0 0.00 0.00 0.00 15 1013.9
20180623140615 62 287 13.0 22.0 0.00 0.00 0.00 13 1013.9
20180623140314 62 287 13.0 22.0 0.00 0.00 0.00 13 1013.9
20180623135619 62 282 13.0 21.0 0.00 0.00 0.00 13 1013.7
20180623135314 62 282 13.0 21.0 0.00 0.00 0.00 13 1013.7
20180623134645 62 283 13.0 23.0 0.00 0.00 0.00 12 1013.6
20180623134314 62 283 13.0 23.0 0.00 0.00 0.00 12 1013.6
20180623133634 62 287 14.0 20.0 0.00 0.00 0.00 11 1013.6
20180623133314 62 287 14.0 20.0 0.00 0.00 0.00 11 1013.6
20180623132739 62 288 14.0 23.0 0.00 0.00 0.00 12 1013.5
20180623132315 62 288 14.0 23.0 0.00 0.00 0.00 12 1013.5
20180623131707 63 286 15.0 23.0 0.00 0.00 0.00 9 1013.5
20180623131314 63 286 15.0 23.0 0.00 0.00 0.00 9 1013.5
20180623130818 63 289 14.0 24.0 0.00 0.00 0.00 10 1013.4
20180623130314 63 289 14.0 24.0 0.00 0.00 0.00 10 1013.4
20180623125738 62 290 16.0 24.0 0.00 0.00 0.00 10 1013.3
20180623125319 62 290 16.0 24.0 0.00 0.00 0.00 10 1013.3
20180623124645 62 289 16.0 22.0 0.00 0.00 0.00 10 1013.3
20180623124315 62 289 16.0 22.0 0.00 0.00 0.00 10 1013.3
20180623123815 63 286 17.0 26.0 0.00 0.00 0.00 9 1013.3
20180623123315 63 286 17.0 26.0 0.00 0.00 0.00 9 1013.3
20180623122743 62 287 15.0 25.0 0.00 0.00 0.00 9 1013.1
20180623122318 62 287 15.0 25.0 0.00 0.00 0.00 9 1013.1
20180623121747 62 292 16.0 22.0 0.00 0.00 0.00 9 1013.2
20180623121316 62 292 16.0 22.0 0.00 0.00 0.00 9 1013.2
20180623121004 62 290 15.0 24.0 0.00 0.00 0.00 9 1013.1
20180623120315 62 290 15.0 24.0 0.00 0.00 0.00 9 1013.1
20180623115902 62 282 15.0 24.0 0.00 0.00 0.00 7 1012.9
20180623115319 62 282 15.0 24.0 0.00 0.00 0.00 7 1012.9
20180623114817 62 285 15.0 23.0 0.00 0.00 0.00 10 1012.9
20180623114315 62 285 15.0 23.0 0.00 0.00 0.00 10 1012.9
20180623114029 62 284 15.0 22.0 0.00 0.00 0.00 8 1012.8
20180623113314 62 284 15.0 22.0 0.00 0.00 0.00 8 1012.8
20180623112928 62 285 16.0 23.0 0.00 0.00 0.00 11 1012.8
20180623112315 62 285 16.0 23.0 0.00 0.00 0.00 11 1012.8
20180623111755 62 292 17.0 26.0 0.00 0.00 0.00 11 1012.8
20180623111708 62 292 17.0 26.0 0.00 0.00 0.00 11 1012.8
20180623111314 62 292 17.0 26.0 0.00 0.00 0.00 11 1012.8
20180623110845 62 292 16.0 24.0 0.00 0.00 0.00 13 1012.8
20180623110314 62 292 16.0 24.0 0.00 0.00 0.00 13 1012.8